Terug naar catalogus

HIBARI

ActiefWetenschapSSO
NORAD 49400·PAYLOAD·🇯🇵 Japan

Gelanceerd Nov 9, 2021 vanaf Uchinoura Space Center

Loading…

Volgende Passages (komende 24 uur)

TLE

VersSource: Space-Track

Epoch: Sep 13, 2026, 20:51 UTC

1 49400U 21102F   26256.86897044  .00009313  00000-0  29104-3 0  9995
2 49400  97.3150 301.8235 0009598 237.5023 122.5293 15.33339075267771

Volg HIBARI in realtime met AllMySat

Download on the App Store